This demonstration page uses our WeatherBlox Daily Observations layout. Learn more.

Left ArrowRight Arrow

Hourly Observations for November 19, 2015

Temp ( °F °C ) Dew Point ( °F °C ) Humidity (%) Winds ( mph kmh ) Pressure ( in mb ) Visibility ( mi km ) Precip ( " mm )
12:53 am 00:53 Clear 43 6.1 28 -2.2 56 56 WNW 5 7 29.93 1014 10 16 0.00 0.00
1:53 am 01:53 Clear 44 6.7 27 -2.8 51 51 W 10 17 29.93 1014 10 16 0.00 0.00
2:53 am 02:53 Clear 44 6.7 27 -2.8 51 51 W 10 17 29.95 1014 10 16 0.00 0.00
3:53 am 03:53 Clear 45 7.2 27 -2.8 49 49 NW 10 17 29.97 1015 10 16 0.00 0.00
4:53 am 04:53 Clear 46 7.8 28 -2.2 50 50 N 10 17 29.99 1016 10 16 0.00 0.00
5:53 am 05:53 Clear 44 6.7 29 -1.7 55 55 N 13 20 30.04 1017 10 16 0.00 0.00
6:53 am 06:53 Clear 41 5 31 -0.6 67 67 N 8 13 30.09 1019 10 16 0.00 0.00
7:53 am 07:53 Sunny 41 5 32 0 70 70 NNW 8 13 30.15 1021 10 16 0.00 0.00
8:53 am 08:53 Sunny 46 7.8 32 0 58 58 N 9 15 30.20 1023 10 16 0.00 0.00
9:53 am 09:53 Sunny 50 10 32 0 50 50 NNE 9 15 30.22 1023 10 16 0.00 0.00
10:53 am 10:53 undefined 52 11.1 32 0 47 47 Calm 30.22 1023 10 16 0.00 0.00
11:53 am 11:53 Sunny 56 13.3 33 0.6 42 42 E 7 11 30.19 1023 10 16 0.00 0.00
12:53 pm 12:53 Sunny 57 13.9 32 0 39 39 Calm 30.16 1021 10 16 0.00 0.00
1:53 pm 13:53 Sunny 60 15.6 33 0.6 36 36 VRB 3 6 30.12 1020 10 16 0.00 0.00
2:53 pm 14:53 Sunny 59 15 33 0.6 38 38 Calm 30.10 1019 10 16 0.00 0.00
3:53 pm 15:53 Sunny 60 15.6 34 1.1 38 38 SSE 5 7 30.09 1019 10 16 0.00 0.00
4:53 pm 16:53 Sunny 61 16.1 33 0.6 35 35 Calm 30.08 1019 10 16 0.00 0.00
5:53 pm 17:53 Clear 58 14.4 33 0.6 39 39 Calm 30.09 1019 10 16 0.00 0.00
6:53 pm 18:53 Clear 54 12.2 33 0.6 45 45 Calm 30.10 1019 10 16 0.00 0.00
7:53 pm 19:53 Clear 48 8.9 33 0.6 56 56 SSW 3 6 30.12 1020 10 16 0.00 0.00
8:53 pm 20:53 Clear 44 6.7 33 0.6 65 65 Calm 30.13 1020 10 16 0.00 0.00
9:53 pm 21:53 Clear 45 7.2 33 0.6 63 63 SSE 3 6 30.12 1020 10 16 0.00 0.00
10:53 pm 22:53 Clear 42 5.6 32 0 68 68 E 3 6 30.12 1020 10 16 0.00 0.00
11:53 pm 23:53 Clear 40 4.4 32 0 73 73 E 3 6 30.10 1019 10 16 0.00 0.00

Powered by AerisWeather